IRIDIUM 77

Last updated on Mon Jun 19 2017 00:17:51 GMT+0000 (Coordinated Universal Time)

1 25471U 98051E 17169.57805003 .00000068 00000-0 15749-4 0 9998 2 25471 86.4220 21.0637 0002482 79.6991 309.1303 14.38613796987998
UTC large
Height (km)
Speed (km/s)
/
Latitude / Longitude
Inclination (degrees)
Orbital Period (minutes)
Azimuth
Elevation
Range (km)
Doppler Factor

Next 0 passes for location: London (51.5072 / 0.1276)

Sorry there are no passes over London.